Weather History for KBIV - January, 2014

Change the Weather History Date:

Friday, January 24, 2014

  Actual Average Record
Temperature  
Mean Temperature 13 °F 26 °F  
Max Temperature 26 °F 32 °F 57 °F (1967)
Min Temperature 0 °F 19 °F -10 °F (1970)
Degree Days  
Heating Degree Days 52 39  
Month to date heating degree days 1085 927  
Since 1 July heating degree days 3501 3195  
Cooling Degree Days 0 0  
Month to date cooling degree days 0 0  
Year to date cooling degree days 0 0  
Moisture  
Dew Point 8 °F    
Average Humidity 76    
Maximum Humidity 88    
Minimum Humidity 64    
Precipitation  
Precipitation 0.19 in 0.06 in 0.65 in (1965)
Month to date precipitation 1.93 1.61  
Year to date precipitation 1.93 1.61  
Sea Level Pressure  
Sea Level Pressure 29.98 in    
Wind  
Wind Speed 25 mph (SW)    
Max Wind Speed 39 mph    
Max Gust Speed 50 mph    
Visibility 2 miles    
Events Fog , Snow    
T = Trace of Precipitation, MM = Missing Value Source: NWS Daily Summary

Daily Weather History Graph

Daily Weather History Graph

Search for Another Location

Airport or City:

Trip Planner

Search our weather history database for the weather conditions in past years. The results will help you decide how hot, cold, wet, or windy it might be!

Date:

Astronomy

Jan. 24, 2014 Rise Set
Actual Time 8:06 AM EST 5:47 PM EST
Civil Twilight 7:35 AM EST 6:17 PM EST
Nautical Twilight 7:01 AM EST 6:52 PM EST
Astronomical Twilight 6:27 AM EST 7:25 PM EST
Moon 1:30 AM EST (1/24) 12:07 PM EST (1/24)
Length of Visible Light 10h 42m
Length of Day
9h 40m
Last Quarter, 45% of the Moon is Illuminated
Jan 24
Last Quarter
Jan 30
New
Feb 6
First Quarter
Feb 14
Full
Feb 22
Last Quarter

Hourly Weather History & Observations

Time (EST) Temp. Windchill Dew Point Humidity Pressure Visibility Wind Dir Wind Speed Gust Speed Precip Events Conditions
12:50 AM 12.2 °F -3.7 °F 5.0 °F 73% 30.42 in 9.0 mi West 15.0 mph - 0.00 in   Overcast
12:53 AM 12.9 °F -2.8 °F 3.9 °F 67% 30.46 in 9.0 mi West 15.0 mph - 0.00 in   Overcast
1:53 AM 12.0 °F -4.0 °F 3.9 °F 70% 30.44 in 10.0 mi WSW 15.0 mph - N/A   Overcast
2:53 AM 10.9 °F -5.9 °F 3.9 °F 73% 30.43 in 6.0 mi WSW 16.1 mph 26.5 mph 0.00 in   Haze
3:53 AM 10.9 °F -5.9 °F 5.0 °F 77% 30.41 in 6.0 mi WSW 16.1 mph - 0.00 in Snow Light Snow
4:53 AM 10.9 °F -8.3 °F 5.0 °F 77% 30.39 in 2.5 mi WSW 21.9 mph - 0.00 in   Haze
5:01 AM 10.9 °F -7.9 °F 5.0 °F 77% 30.33 in 4.0 mi WSW 20.7 mph - N/A   Haze
5:16 AM 10.9 °F -9.2 °F 5.0 °F 77% 30.33 in 2.5 mi WSW 24.2 mph 31.1 mph 0.00 in Snow Light Snow
5:49 AM 10.4 °F -9.5 °F 5.0 °F 79% 30.31 in 1.5 mi WSW 23.0 mph 31.1 mph 0.00 in Snow Light Snow
5:53 AM 10.0 °F -9.5 °F 5.0 °F 80% 30.36 in 1.8 mi WSW 21.9 mph - 0.00 in Snow Light Snow
6:00 AM 10.0 °F -10.4 °F 5.0 °F 80% 30.30 in 2.0 mi WSW 24.2 mph 32.2 mph 0.00 in Snow Light Snow
6:15 AM 10.9 °F -7.5 °F 5.0 °F 77% 30.30 in 3.0 mi SW 19.6 mph 27.6 mph 0.00 in Snow Light Snow
6:21 AM 10.9 °F -7.9 °F 6.1 °F 81% 30.30 in 1.8 mi WSW 20.7 mph - 0.00 in Snow Light Snow
6:35 AM 10.9 °F -8.3 °F 6.1 °F 81% 30.29 in 2.0 mi SW 21.9 mph - 0.00 in Snow Light Snow
6:43 AM 10.9 °F -7.5 °F 5.0 °F 77% 30.28 in 1.8 mi SW 19.6 mph - 0.00 in Snow Light Snow
6:53 AM 10.9 °F -7.9 °F 6.1 °F 81% 30.32 in 1.5 mi WSW 20.7 mph - 0.00 in Snow Light Snow
7:09 AM 10.9 °F -8.3 °F 6.1 °F 81% 30.25 in 1.0 mi SW 21.9 mph 31.1 mph 0.00 in Snow Light Snow
7:22 AM 10.9 °F -9.2 °F 5.0 °F 77% 30.24 in 1.5 mi SW 24.2 mph 29.9 mph 0.00 in Snow Light Snow
7:37 AM 10.9 °F -8.3 °F 5.0 °F 77% 30.23 in 2.5 mi SW 21.9 mph 27.6 mph 0.00 in Snow Light Snow
7:53 AM 6.1 °F -11.6 °F 1.9 °F 83% 30.26 in 4.0 mi South 15.0 mph 31.1 mph 0.00 in   Overcast
8:12 AM 3.9 °F -16.1 °F -0.9 °F 80% 30.20 in 1.8 mi South 18.4 mph - 0.00 in Snow Light Snow
8:21 AM 3.0 °F -17.3 °F -0.9 °F 84% 30.20 in 1.0 mi South 18.4 mph 27.6 mph 0.00 in Snow Light Snow
8:42 AM 1.9 °F -19.8 °F -2.9 °F 80% 30.19 in 0.8 mi South 20.7 mph - 0.00 in Snow Light Snow
8:49 AM 1.4 °F -21.0 °F -2.2 °F 85% 30.18 in 0.5 mi South 21.9 mph - 0.00 in Fog , Snow Light Snow
8:53 AM 1.0 °F -19.9 °F -4.0 °F 79% 30.23 in 0.5 mi South 18.4 mph - 0.00 in Snow Snow
9:03 AM -0.0 °F -21.8 °F -4.0 °F 83% 30.17 in 0.8 mi South 19.6 mph 27.6 mph 0.00 in Snow Light Snow
9:24 AM -0.0 °F -20.1 °F -4.0 °F 83% 30.16 in 0.5 mi South 16.1 mph - 0.00 in Fog , Snow Light Snow
9:46 AM 1.0 °F -20.9 °F -4.0 °F 79% 30.14 in 0.8 mi South 20.7 mph - 0.00 in Snow Light Snow
9:53 AM 1.0 °F -20.4 °F -4.0 °F 79% 30.18 in 0.8 mi South 19.6 mph - 0.00 in Snow Light Snow
10:03 AM 1.0 °F -19.9 °F -4.0 °F 79% 30.12 in 0.5 mi South 18.4 mph - 0.00 in Snow Snow
10:17 AM 1.0 °F -19.9 °F -2.9 °F 83% 30.12 in 0.8 mi South 18.4 mph - 0.00 in Snow Light Snow
10:53 AM 5.0 °F -15.7 °F -0.0 °F 80% 30.12 in 1.0 mi SSW 20.7 mph - 0.00 in Snow Light Snow
11:05 AM 6.1 °F -14.3 °F -0.0 °F 76% 30.06 in 1.5 mi SSW 20.7 mph 29.9 mph 0.00 in Snow Light Snow
11:23 AM 6.1 °F -14.8 °F -0.0 °F 76% 30.03 in 2.5 mi South 21.9 mph 29.9 mph 0.00 in   Haze
11:53 AM 8.1 °F -12.6 °F 1.0 °F 73% 30.02 in 1.2 mi South 23.0 mph 36.8 mph 0.00 in   Haze
12:01 PM 9.0 °F -10.5 °F 1.9 °F 73% 29.96 in 1.5 mi South 20.7 mph 31.1 mph N/A   Haze
12:53 PM 12.0 °F -8.8 °F 3.0 °F 67% 29.95 in 1.2 mi SSW 27.6 mph 38.0 mph 0.00 in   Haze
1:02 PM 12.0 °F -8.8 °F 3.0 °F 67% 29.90 in 1.5 mi SSW 27.6 mph 41.4 mph N/A   Haze
1:14 PM 12.0 °F -7.3 °F 3.0 °F 67% 29.88 in 3.0 mi SSW 23.0 mph 35.7 mph N/A   Haze
1:24 PM 12.9 °F -5.7 °F 3.9 °F 67% 29.87 in 2.5 mi SSW 21.9 mph 32.2 mph N/A   Haze
1:34 PM 12.9 °F -5.3 °F 3.9 °F 67% 29.87 in 3.0 mi SSW 20.7 mph 38.0 mph N/A   Haze
1:42 PM 14.0 °F -4.7 °F 6.1 °F 71% 29.86 in 2.0 mi SSW 23.0 mph 34.5 mph N/A   Haze
1:53 PM 15.1 °F -4.0 °F 7.0 °F 70% 29.90 in 1.8 mi SSW 25.3 mph 36.8 mph N/A   Haze
2:02 PM 16.0 °F -2.8 °F 8.1 °F 71% 29.84 in 0.8 mi SW 25.3 mph 39.1 mph 0.00 in Snow Light Snow
2:20 PM 17.1 °F -2.4 °F 10.0 °F 74% 29.81 in 0.2 mi SW 28.8 mph 48.3 mph 0.00 in Snow Heavy Snow
2:53 PM 18.0 °F -1.4 °F 10.9 °F 74% 29.83 in 0.5 mi SW 29.9 mph 43.7 mph 0.01 in Snow Snow
3:03 PM 19.0 °F 0.0 °F 10.9 °F 71% 29.77 in 0.8 mi SW 29.9 mph 43.7 mph 0.00 in Snow Light Snow
3:22 PM 19.0 °F 0.3 °F 12.0 °F 74% 29.74 in 0.5 mi SW 28.8 mph 43.7 mph 0.00 in Snow Snow
3:53 PM 19.0 °F 0.3 °F 12.0 °F 74% 29.78 in 0.2 mi SW 28.8 mph 48.3 mph 0.00 in Snow Heavy Snow
4:53 PM 19.9 °F 1.5 °F 14.0 °F 78% 29.74 in 0.2 mi SW 28.8 mph 47.2 mph 0.02 in Snow Heavy Snow
5:48 PM 21.2 °F 2.2 °F 15.8 °F 80% 29.68 in 0.8 mi SW 33.4 mph 47.2 mph 0.00 in Snow Light Snow
5:53 PM 21.0 °F 1.4 °F 15.1 °F 78% 29.72 in 0.8 mi SW 35.7 mph 49.5 mph 0.01 in Snow Light Snow
6:40 PM 21.9 °F 3.7 °F 16.0 °F 78% 29.66 in 1.0 mi SW 31.1 mph 44.9 mph 0.02 in Snow Light Snow
6:53 PM 21.9 °F 3.7 °F 16.0 °F 78% 29.69 in 0.8 mi SW 31.1 mph 46.0 mph 0.02 in Snow Light Snow
7:02 PM 21.9 °F 3.1 °F 16.0 °F 78% 29.65 in 1.0 mi SW 33.4 mph 47.2 mph 0.00 in Snow Light Snow
7:12 PM 23.0 °F 4.6 °F 17.1 °F 78% 29.64 in 0.8 mi SW 33.4 mph 48.3 mph 0.00 in Snow Light Snow
7:26 PM 23.0 °F 4.9 °F 18.0 °F 81% 29.64 in 0.5 mi SW 32.2 mph 43.7 mph 0.01 in Snow Snow
7:35 PM 23.0 °F 4.6 °F 17.1 °F 78% 29.62 in 1.0 mi SW 33.4 mph 43.7 mph 0.01 in Snow Light Snow
7:46 PM 23.0 °F 5.1 °F 17.1 °F 78% 29.61 in 0.8 mi SW 31.1 mph 42.6 mph 0.01 in Snow Light Snow
7:53 PM 24.1 °F 5.6 °F 17.1 °F 75% 29.65 in 0.8 mi SW 35.7 mph 46.0 mph 0.01 in Snow Light Snow
8:20 PM 24.1 °F 5.9 °F 18.0 °F 77% 29.59 in 1.0 mi SW 34.5 mph 42.6 mph 0.01 in Snow Light Snow
8:46 PM 24.1 °F 7.1 °F 19.0 °F 81% 29.56 in 0.5 mi SW 28.8 mph 47.2 mph 0.01 in Snow Snow
8:53 PM 24.1 °F 5.0 °F 19.0 °F 81% 29.60 in 0.8 mi SW 39.1 mph 49.5 mph 0.01 in Snow Light Snow
9:15 PM 24.1 °F 5.9 °F 19.9 °F 84% 29.54 in 0.5 mi SW 34.5 mph 43.7 mph 0.00 in Fog , Snow Light Snow
9:27 PM 24.1 °F 6.6 °F 21.0 °F 88% 29.53 in 0.5 mi SW 31.1 mph 43.7 mph 0.02 in Fog , Snow Snow
9:37 PM 24.1 °F 6.4 °F 21.9 °F 91% 29.52 in 0.2 mi SW 32.2 mph 43.7 mph 0.02 in Fog , Snow Snow
9:53 PM 24.1 °F 8.0 °F 21.9 °F 91% 29.55 in 0.5 mi SW 25.3 mph 43.7 mph 0.03 in Fog , Snow Snow
10:53 PM 26.1 °F 9.3 °F 23.0 °F 88% 29.51 in 0.2 mi SW 31.1 mph 43.7 mph 0.03 in Fog , Snow Heavy Snow
11:01 PM 26.1 °F 10.4 °F 24.1 °F 92% 29.46 in 0.2 mi SW 26.5 mph 39.1 mph 0.01 in Fog , Snow Heavy Snow
11:53 PM 26.1 °F 9.6 °F 24.1 °F 92% 29.46 in 0.5 mi SW 29.9 mph 43.7 mph 0.04 in Fog , Snow Snow